Wind_Speed
20 19 19 19 19 18 18 18 18 18 17 18 17 18 18 18 18 17 17 17 17 18 17 17 17 18 18 18 19 19 19 19 18 19 21 21 20 20
21 20 20 20 20 19 19 19 19 19 19 19 19 19 19 19 19 19 19 18 18 18 18 18 18 18 18 17 18 18 18 18 19 19 20 20 21 20
21 21 21 21 20 20 20 19 19 20 20 20 20 20 20 20 20 20 20 19 19 20 20 19 19 18 17 17 18 19 19 19 19 20 21 21 21 21
22 21 21 20 20 21 21 21 21 21 21 21 21 21 21 21 22 21 21 20 20 21 21 20 19 19 18 18 19 19 20 20 21 21 21 22 22 22
22 22 21 21 21 22 22 22 22 22 22 22 22 21 21 21 21 21 22 22 22 22 22 21 20 20 20 20 20 21 21 21 22 22 21 22 22 23
22 22 22 21 22 22 22 23 23 23 23 23 22 22 22 21 21 21 22 23 23 23 23 23 23 22 22 22 22 22 22 22 22 22 23 23 22 22
22 22 22 22 22 22 23 23 23 23 23 22 21 21 20 21 21 21 22 23 24 24 24 24 23 23 23 23 23 23 23 23 23 23 23 24 24 23
23 22 22 22 21 21 22 22 23 22 22 22 21 21 21 21 21 21 22 22 23 23 23 23 23 23 23 23 24 24 23 23 23 23 23 24 24 24
24 23 23 22 21 21 21 21 21 21 21 22 21 21 22 22 22 22 22 23 23 22 22 22 23 23 23 23 24 24 23 23 24 24 24 24 24 24
25 25 24 24 23 22 21 21 20 21 21 21 22 22 22 23 23 23 23 23 23 23 23 23 23 23 23 23 23 24 24 24 23 23 23 24 24 24
25 25 25 24 24 23 22 22 22 22 22 22 22 22 22 22 22 22 23 23 23 24 24 24 23 23 23 23 23 24 24 23 23 23 24 24 24 25
27 26 26 25 25 25 25 24 23 23 23 23 23 23 23 23 23 23 22 23 23 23 23 24 23 23 23 23 24 24 24 24 24 24 24 24 24 25
28 28 27 26 25 24 24 24 25 24 24 24 24 24 24 23 24 24 24 24 23 23 22 22 23 22 21 21 22 23 23 24 24 24 24 23 23 24
29 27 27 26 26 25 25 25 26 25 24 24 23 24 24 24 24 24 24 24 24 23 22 22 22 22 21 21 22 23 23 23 23 24 24 24 24 24
29 28 27 27 27 26 26 26 27 26 25 24 24 24 24 24 24 24 24 24 24 24 24 23 23 22 22 22 22 23 23 23 24 24 24 23 23 23
29 29 28 27 27 26 27 27 27 26 25 25 25 25 25 25 24 24 24 23 23 24 24 24 23 23 22 22 23 23 22 22 23 23 23 23 23 23
29 29 28 27 27 27 26 27 27 27 27 26 26 26 25 25 25 24 24 24 24 24 23 23 23 23 23 22 22 22 22 22 22 22 23 23 23 24
29 29 27 27 26 26 26 26 26 26 27 27 26 26 25 25 25 24 23 23 23 23 22 22 22 22 22 22 22 22 22 22 22 23 23 24 24 24
29 29 28 27 27 26 26 26 27 27 26 26 26 26 26 26 25 24 24 23 23 23 23 22 22 22 21 21 21 22 22 22 23 23 24 25 25 25
28 28 28 28 27 26 26 26 26 26 26 25 26 26 26 26 25 24 24 24 23 23 23 23 23 22 22 21 21 22 23 23 24 24 25 25 25 25
26 27 27 27 26 26 26 26 26 26 26 26 26 26 25 25 24 24 24 24 24 24 24 23 23 23 22 22 21 22 23 23 24 24 24 25 25 25
25 26 26 25 25 26 26 25 25 25 25 25 25 25 25 25 24 24 23 23 23 23 23 23 24 24 23 23 23 23 24 24 24 24 24 25 25 25
25 25 25 25 25 25 25 25 25 25 25 25 25 25 25 25 25 24 24 23 23 23 23 23 24 24 24 24 24 24 24 24 23 24 25 25 25 26
Wind_Direction
279 279 278 279 280 280 280 279 277 276 278 278 280 283 285 286 286 286 285 285 285 287 287 286 283 279 275 271 266 264 264 264 266 265 264 263 262 263
276 277 277 278 277 278 278 278 277 277 278 278 279 281 282 282 284 284 283 285 287 287 287 284 282 281 276 272 268 266 265 267 267 267 267 265 265 266
273 274 275 276 275 276 277 276 276 276 278 279 280 281 280 279 281 282 282 284 286 286 286 285 282 280 278 275 271 268 268 267 267 267 267 266 266 267
271 272 273 274 275 275 276 277 276 275 275 277 280 280 280 280 281 280 281 284 285 287 286 284 280 279 276 275 273 272 271 269 267 267 267 266 266 267
270 272 271 272 274 274 274 275 276 276 275 276 277 280 281 284 284 282 282 283 285 285 284 281 279 278 276 274 273 272 271 270 269 269 268 267 266 267
270 270 270 271 274 275 274 274 275 276 277 277 277 279 281 283 283 281 281 282 284 282 280 280 279 276 275 274 273 272 271 270 269 270 271 270 268 266
269 270 270 270 271 273 275 274 274 275 276 276 278 280 282 283 283 281 280 280 283 280 277 276 275 273 272 271 271 271 271 272 272 272 271 271 270 267
267 268 269 268 270 273 274 273 271 272 274 275 277 279 281 282 284 282 280 280 282 281 279 278 275 274 273 272 271 271 272 272 272 272 271 271 271 270
267 267 268 269 269 271 272 273 271 271 272 274 276 278 280 282 284 284 282 281 282 281 279 279 277 275 273 272 271 271 271 272 272 273 272 272 273 273
264 265 266 266 266 269 272 271 271 272 274 275 277 279 283 283 283 284 285 284 283 281 281 282 279 276 275 274 272 272 273 273 274 274 273 273 274 274
263 264 264 264 266 268 269 267 267 270 272 275 277 280 283 286 287 287 286 285 286 284 281 280 279 277 274 273 273 273 273 274 275 274 274 274 274 275
262 261 262 264 267 268 268 266 266 269 271 273 276 278 282 285 286 288 289 287 287 285 282 279 278 276 274 273 274 273 273 274 274 274 275 276 275 276
261 262 262 263 266 266 268 266 266 268 270 271 275 278 280 283 285 286 288 289 288 287 285 282 280 277 275 274 274 275 275 275 275 275 275 275 275 275
261 262 261 262 264 267 268 267 266 267 269 270 273 277 280 281 283 285 286 285 285 286 284 283 282 279 276 277 277 277 278 277 276 276 277 277 277 276
259 259 260 261 264 266 266 265 265 267 267 270 274 277 279 280 282 284 285 284 282 284 285 283 281 279 279 279 279 278 278 277 277 277 278 279 278 277
257 257 258 259 262 266 266 265 265 265 267 271 274 276 278 280 281 282 284 283 282 283 284 282 281 281 280 280 280 280 278 277 277 278 278 278 279 279
255 256 257 258 260 264 263 264 265 266 269 272 273 274 277 280 281 282 283 284 283 283 282 282 282 283 283 282 281 281 279 278 278 278 278 277 278 278
252 253 256 257 259 262 262 263 265 267 268 269 271 273 277 279 281 281 281 282 282 282 281 282 283 284 283 283 282 282 282 281 281 280 279 279 278 277
251 251 253 254 257 260 262 264 264 265 266 267 269 273 275 277 279 279 280 280 281 281 280 281 282 283 283 284 283 282 282 282 282 281 281 280 278 278
250 252 255 256 258 260 263 264 263 263 265 266 269 273 274 275 276 277 278 279 280 280 280 281 282 282 282 282 281 281 282 283 283 282 282 282 281 279
251 252 255 258 257 259 262 264 264 263 264 265 268 272 273 274 275 277 278 279 280 280 280 280 280 281 282 282 282 282 283 283 282 282 282 282 281 279
252 252 254 257 257 259 262 263 263 263 265 267 268 269 271 273 275 277 278 279 280 281 280 279 280 281 281 281 281 282 283 283 282 282 283 284 282 280
254 255 257 257 256 258 260 261 264 265 266 267 268 268 270 272 274 276 277 278 278 279 280 281 281 281 280 280 281 281 282 282 283 284 285 285 284 283
Height
5829 5828 5828 5828 5827 5827 5826 5825 5825 5825 5824 5823 5822 5821 5820 5820 5819 5818 5817 5816 5815 5814 5813 5811 5810 5809 5808 5808 5808 5808 5809 5810 5810 5811 5812 5813 5813 5813
5823 5823 5822 5822 5822 5821 5821 5820 5820 5819 5819 5819 5817 5817 5816 5815 5814 5813 5812 5811 5810 5809 5808 5806 5805 5804 5803 5802 5802 5803 5803 5804 5805 5806 5806 5807 5807 5807
5817 5817 5817 5816 5816 5816 5815 5815 5814 5814 5814 5813 5812 5811 5811 5810 5809 5808 5807 5806 5805 5804 5803 5801 5800 5799 5798 5798 5797 5798 5798 5799 5800 5800 5801 5801 5801 5802
5811 5811 5811 5810 5810 5810 5810 5809 5809 5808 5808 5808 5807 5806 5805 5804 5803 5802 5802 5801 5800 5799 5797 5796 5795 5794 5793 5793 5793 5793 5793 5794 5794 5794 5795 5795 5795 5795
5804 5804 5805 5804 5804 5804 5804 5803 5803 5803 5802 5802 5801 5800 5800 5798 5797 5796 5796 5795 5794 5793 5791 5790 5789 5789 5788 5787 5787 5787 5787 5788 5788 5788 5788 5788 5789 5789
5798 5798 5798 5798 5798 5798 5798 5797 5797 5796 5796 5795 5795 5794 5794 5792 5791 5790 5790 5788 5787 5786 5785 5784 5783 5783 5782 5782 5781 5781 5781 5781 5781 5781 5781 5782 5782 5782
5791 5791 5791 5792 5792 5792 5792 5791 5791 5790 5790 5789 5789 5788 5787 5786 5785 5784 5783 5782 5781 5779 5778 5777 5777 5776 5775 5775 5775 5774 5774 5775 5775 5775 5775 5775 5775 5775
5784 5784 5785 5785 5785 5785 5785 5785 5784 5784 5784 5783 5783 5782 5781 5780 5779 5778 5777 5775 5774 5773 5772 5771 5770 5769 5769 5768 5768 5768 5768 5768 5768 5768 5768 5768 5768 5769
5777 5778 5778 5778 5778 5778 5778 5778 5778 5778 5777 5777 5776 5776 5775 5774 5773 5772 5770 5769 5768 5766 5765 5764 5763 5762 5761 5761 5761 5761 5761 5761 5761 5761 5762 5762 5762 5762
5770 5770 5771 5771 5772 5772 5772 5771 5772 5771 5771 5770 5770 5769 5768 5768 5766 5765 5764 5762 5761 5760 5758 5757 5756 5755 5755 5754 5754 5754 5754 5754 5754 5754 5754 5755 5755 5754
5762 5763 5763 5764 5764 5765 5765 5765 5765 5765 5764 5764 5763 5763 5762 5761 5759 5758 5757 5756 5754 5753 5751 5750 5749 5748 5748 5748 5747 5747 5747 5747 5747 5747 5747 5747 5747 5747
5754 5754 5755 5756 5757 5756 5757 5757 5758 5758 5758 5757 5757 5756 5755 5754 5753 5752 5750 5749 5747 5746 5744 5743 5742 5741 5741 5741 5740 5740 5740 5740 5740 5740 5740 5740 5740 5740
5746 5746 5747 5748 5748 5748 5749 5750 5750 5750 5750 5750 5750 5749 5748 5747 5746 5745 5743 5742 5740 5739 5738 5736 5735 5734 5734 5734 5734 5733 5733 5733 5732 5732 5732 5732 5732 5732
5737 5738 5739 5740 5741 5741 5741 5742 5742 5743 5743 5743 5742 5742 5741 5740 5739 5738 5736 5734 5733 5732 5731 5730 5729 5728 5728 5728 5727 5726 5726 5725 5725 5725 5725 5725 5725 5724
5728 5729 5730 5732 5732 5733 5734 5734 5734 5735 5735 5735 5735 5735 5734 5733 5732 5730 5729 5727 5726 5725 5724 5722 5722 5721 5721 5721 5721 5720 5719 5719 5718 5718 5718 5717 5717 5717
5719 5720 5721 5723 5724 5724 5725 5726 5726 5727 5727 5727 5727 5727 5726 5725 5724 5722 5721 5720 5719 5718 5717 5715 5715 5715 5714 5714 5713 5713 5712 5712 5711 5711 5711 5710 5710 5709
5710 5711 5713 5714 5715 5716 5717 5718 5718 5719 5719 5719 5719 5719 5718 5717 5716 5715 5714 5713 5712 5711 5710 5709 5708 5707 5707 5707 5706 5705 5705 5704 5704 5704 5704 5703 5703 5702
5701 5703 5704 5706 5707 5708 5709 5709 5710 5711 5711 5711 5711 5711 5710 5709 5708 5707 5706 5705 5704 5704 5703 5702 5702 5701 5700 5699 5699 5698 5698 5697 5697 5696 5696 5696 5695 5695
5692 5694 5696 5697 5699 5700 5701 5701 5702 5702 5702 5703 5703 5703 5702 5701 5700 5700 5699 5698 5697 5696 5696 5695 5695 5694 5694 5693 5692 5691 5690 5690 5689 5689 5688 5687 5687 5687
5683 5686 5687 5689 5690 5691 5692 5693 5693 5694 5694 5695 5695 5695 5694 5694 5693 5692 5691 5691 5690 5689 5689 5688 5687 5687 5686 5686 5686 5684 5683 5682 5682 5681 5680 5679 5679 5678
5675 5677 5679 5680 5681 5682 5683 5684 5685 5686 5686 5687 5687 5687 5686 5686 5685 5685 5684 5683 5683 5682 5681 5681 5680 5679 5679 5679 5679 5678 5676 5675 5674 5673 5672 5671 5671 5670
5668 5669 5671 5672 5673 5674 5675 5676 5677 5677 5678 5678 5679 5679 5679 5678 5678 5677 5676 5676 5675 5675 5674 5673 5672 5672 5672 5671 5671 5670 5669 5667 5666 5665 5664 5663 5662 5662
5660 5661 5662 5664 5665 5666 5667 5668 5669 5669 5670 5670 5671 5671 5671 5670 5670 5669 5669 5668 5668 5667 5666 5666 5665 5664 5664 5663 5663 5662 5661 5660 5659 5658 5657 5655 5654 5653